Regional Weather Roundup
Issued by NWS

Home | Current Version | Previous Version | Text Only | Print | Product List | Glossary On
Versions: 1 2 3 4 5 6 7 8 9 10 11 12 13 14 15 16 17 18 19 20 21 22 23 24 25 26 27 28 29 30 31 32 33 34 35 36 37 38 39 40 41 42 43 44 45 46 47 48 49 50
000
ASUS43 KMKX 242211
RWRWI

WISCONSIN REGIONAL WEATHER ROUNDUP
NATIONAL WEATHER SERVICE MILWAUKEE/SULLIVAN WI
500 PM CDT THU APR 24 2014

NOTE: "FAIR" INDICATES FEW OR NO CLOUDS BELOW 12,000 FEET WITH NO
SIGNIFICANT WEATHER AND/OR OBSTRUCTIONS TO VISIBILITY.

WIZ001-002-006>008-014>016-023>028-242300-
NORTHWEST WISCONSIN

CITY           SKY/WX    TMP DP  RH WIND       PRES   REMARKS
SUPERIOR ARPT  LGT SNOW  32  32 100 NE12G20   29.76F WCI  23
ASHLAND        LGT RAIN  34  34 100 NE8       29.78F FOG     WCI  27
HAYWARD        LGT RAIN  36  32  85 E8G17     29.71F WCI  30
SIREN          DRIZZLE   40  39  97 NE5       29.69F
RICE LAKE      DRIZZLE   42  40  94 E8        29.69F
LADYSMITH      RAIN      41  40  95 E9        29.71F
EAU CLAIRE     LGT RAIN  43  42  97 VRB6      29.67F FOG
MENOMONIE      DRIZZLE   42  42  99 E8        29.68F
NEW RICHMOND   CLOUDY    42  42  99 S5        29.67S
OSCEOLA        DRIZZLE   43  43  99 CALM      29.71R
$$

WIZ003>005-009-010-017-018-242300-
NORTH CENTRAL WISCONSIN

CITY           SKY/WX    TMP DP  RH WIND       PRES   REMARKS
WOODRUFF       LGT SNOW  37  34  92 SE10G17   29.77F WCI  29
RHINELANDER    LGT RAIN  36  34  92 SE16      29.78F FOG     WCI  26
EAGLE RIVER    MIX PCPN  34  33  99 SE13G18   29.80F WCI  25
LAND O LAKES   LGT SNOW  34  33  98 E9        29.82F WCI  26
PHILLIPS       RAIN      36  35  94 SE10G22   29.72F WCI  29
TOMAHAWK       LGT RAIN  37  35  92 SE9G16    29.76F WCI  30
MEDFORD        LGT RAIN  39  38  97 SE16G26   29.71F WCI  30
MERRILL        LGT RAIN  39  37  93 SE14G20   29.75F WCI  31
$$

WIZ029-030-035-036-043>047-242300-
CENTRAL WISCONSIN

CITY           SKY/WX    TMP DP  RH WIND       PRES   REMARKS
WAUSAU         LGT RAIN  40  40 100 SE20G28   29.73F FOG     WCI  30
MOSINEE        LGT RAIN  39  39 100 E14G24    29.74F WCI  31
MARSHFIELD     LGT RAIN  42  39  89 SE16      29.70S FOG
STEVENS POINT  LGT RAIN  40  37  89 E20G28    29.74F WCI  30
WAUPACA        LGT RAIN  45  39  81 E18G28    29.76F
WAUTOMA        LGT RAIN  46  40  79 E9G17     29.74F
WISC RAPIDS    LGT RAIN  43  40  89 E13G21    29.72F FOG
CAMP DOUGLAS   DRIZZLE   46  46 100 SE2       29.68R FOG
$$

WIZ011>013-019>022-031-037>040-048>050-242300-
NORTHEAST WISCONSIN

CITY           SKY/WX    TMP DP  RH WIND       PRES   REMARKS
ANTIGO         LGT RAIN  37  36  93 SE18G30   29.78F WCI  27
STURGEON BAY   CLOUDY    39  34  81 E12G22    29.87F WCI  32
GREEN BAY      LGT RAIN  42  38  85 E12       29.83F FOG
MANITOWOC      LGT RAIN  42  37  82 E15       29.85F
APPLETON       LGT RAIN  41  39  93 E16       29.81F FOG
CLINTONVILLE   RAIN      41  39  93 E12G20    29.81F
OSHKOSH        LGT RAIN  44  37  76 E15       29.77F
$$

WIZ032>034-041-042-053>061-242300-
SOUTHWEST WISCONSIN

CITY           SKY/WX    TMP DP  RH WIND       PRES   REMARKS
LA CROSSE      LGT RAIN  47  45  93 SE3       29.66S FOG
SPARTA         LGT RAIN  45  44  98 E5        29.69S
VIROQUA        CLOUDY    48  48 100 S6        29.67S
BOSCOBEL       LGT RAIN  53  48  83 S3        29.67F
PRAIRIE DU CHI DRIZZLE   51  49  92 CALM      29.68R
PLATTEVILLE    CLOUDY    52  48  86 SE12      29.67F
$$

WIZ056-057-062-063-064-067-068-242300-
SOUTH CENTRAL WISCONSIN

CITY           SKY/WX    TMP DP  RH WIND       PRES   REMARKS
BARABOO/DELLS  DRIZZLE   50  45  83 SE14      29.68F
LONE ROCK      LGT RAIN  53  48  83 SE8       29.68F
WATERTOWN      DRIZZLE   53  38  58 E9G16     29.72F
MADISON        LGT RAIN  52  47  83 SE12      29.72F
MIDDLETON      CLOUDY    52  47  82 SE10      29.70F
MONROE         DRIZZLE   50  50 100 SE8       29.70F
JANESVILLE     CLOUDY    61  39  44 SE15      29.69F
$$

WIZ051-052-058>065-066-070>072-242300-
SOUTHEAST WISCONSIN

CITY           SKY/WX    TMP DP  RH WIND       PRES   REMARKS
MILWAUKEE      CLOUDY    49  30  48 SE18G29   29.79F
WAUKESHA       CLOUDY    52  30  43 E16G24    29.77F
MILWAUKEE/TIMM CLOUDY    50  27  40 SE10G17   29.80F
RACINE         CLOUDY    50  31  48 SE13G28   29.80F
BURLINGTON     CLOUDY    58  32  37 MISG      29.73F
KENOSHA        CLOUDY    55  28  35 SE21G26   29.77F
FOND DU LAC    LGT RAIN  46  35  65 SE20G25   29.76F
SHEBOYGAN      LGT RAIN  45  33  63 E10       29.83F
WEST BEND      CLOUDY    45  30  57 E13G18    29.79F
JUNEAU         DRIZZLE   49  33  52 E10       29.75F
$$

LSZ147-162-242300-
LAKE SUPERIOR

STATION/POSITION TIME  TEMP    WIND        PRES    WAVE
                       AIR SEA DIR/SP/G            HT/PER
                 (UTC) (F)     (DEG/KT/KT) (MB)    (FT/S)
DEVILS ISLAND    2200   33      90/ 24/ 28 1010.4F
PORT WING        2140   36      90/  4/ 17 1008.5F
SAXON HARBOR     2100           60/  5/  7 1009.5F
$$

LMZ867-665-643>646-242300-
LAKE MICHIGAN

STATION/POSITION TIME  TEMP    WIND        PRES    WAVE
                       AIR SEA DIR/SP/G            HT/PER
                 (UTC) (F)     (DEG/KT/KT) (MB)    (FT/S)
NORTHPORT PIER   2200   36      90/ 10/ 25 1013.5F
SISTER BAY       2108   38     140/  8/ 12   N/A
KEWAUNEE LAKESHO 2100   39      80/ 11/ 15 1013.4F
SHEBOYGAN LAKESH 2200   43     100/ 16/ 17 1010.7F
PORT WASHINGTON  2200   41      90/ 12/ 15 1010.2F
MILWAUKEE LAKESH 2100   43     130/  8/ 10   N/A
KENOSHA   LAKESH 2200   45     110/ 14/ 16   N/A
$$

TC  - TEMPERATURE IN CELSIUS
VSB - VISIBILITY IN STATUTE MILES
WCI - WIND CHILL INDEX
HX  - HEAT INDEX




USA.gov is the U.S. government's official web portal to all federal, state and local government web resources and services.